This is the latest recevied weather packets stored in our database for station/object KD2VWU. If no packets are shown the sender has not sent any weather packets the latest 10 day(s).
| Time | Temp. | Humidity | Pressure | Rain* | Wind** | Luminosity | Snow |
|---|---|---|---|---|---|---|---|
| 1778091599 | 15.56° C | 99% | 1004.7 hPa | 0 mm | - | - | - |
| 1778091298 | 15.56° C | 99% | 1004.8 hPa | 0 mm | - | - | - |
| 1778090994 | 15.56° C | 99% | 1004.8 hPa | 0 mm | - | - | - |
| 1778090691 | 15.56° C | 99% | 1004.9 hPa | 0 mm | - | - | - |
| 1778090387 | 15.56° C | 98% | 1004.9 hPa | 1.27 mm | - | - | - |
| 1778090084 | 15.56° C | 98% | 1004.9 hPa | 1.27 mm | - | - | - |
| 1778089781 | 15.56° C | 98% | 1004.9 hPa | 1.78 mm | - | - | - |
| 1778089479 | 15.56° C | 98% | 1005.1 hPa | 1.78 mm | - | - | - |
| 1778089175 | 15.56° C | 97% | 1005.1 hPa | 0 mm | - | - | - |
| 1778088872 | 15.56° C | 97% | 1004.9 hPa | 1.27 mm | - | - | - |
| 1778088569 | 16.11° C | 96% | 1004.9 hPa | 1.27 mm | - | - | - |
| 1778088266 | 16.11° C | 96% | 1004.5 hPa | 0 mm | - | - | - |
| 1778087963 | 16.11° C | 96% | 1004.5 hPa | 0 mm | - | - | - |
| 1778087661 | 16.11° C | 95% | 1004.9 hPa | 0 mm | - | - | - |
| 1778087358 | 16.67° C | 95% | 1004.5 hPa | 1.78 mm | - | - | - |
| 1778087053 | 16.67° C | 95% | 1004.9 hPa | 1.78 mm | - | - | - |
| 1778086748 | 16.67° C | 94% | 1004.9 hPa | 1.27 mm | - | - | - |
| 1778086445 | 17.22° C | 93% | 1005.1 hPa | 3.05 mm | - | - | - |
| 1778086141 | 17.22° C | 92% | 1005.1 hPa | 1.78 mm | - | - | - |
| 1778085837 | 17.22° C | 89% | 1005.4 hPa | 0 mm | - | - | - |
| 1778085536 | 17.22° C | 88% | 1005.7 hPa | 0 mm | - | - | - |
| 1778085230 | 17.78° C | 86% | 1005.8 hPa | 0 mm | - | - | - |
| 1778084925 | 17.78° C | 85% | 1006.1 hPa | 0 mm | - | - | - |
| 1778084624 | 18.33° C | 84% | 1006 hPa | 0 mm | - | - | - |
| 1778084321 | 18.33° C | 84% | 1005.8 hPa | 0 mm | - | - | - |
* Rain latest hour (hover to see other rain measurements)
** Current wind speed in m/s (hover to see current wind gust speed)